Location: Bonny Doon Airfield
(37.0704°N, 122.1252°W)
Time: 06:48:17
(UTC-08:00)

Vanguard 3 - All Passes

Search period start: 17 January 2018 00:00
Search period end: 27 January 2018 00:00
Orbit: 508 x 3264 km, 33.4° (Epoch: 17 January)

Date Brightness Start Highest point End Pass type
(mag) Time Alt. Az. Time Alt. Az. Time Alt. Az.
17 Jan - 00:10:48 10° SW 00:24:10 49° SSE 00:42:32 10° E visible
17 Jan - 02:22:43 10° WSW 02:39:54 75° SSE 02:59:37 10° E visible
17 Jan - 04:37:39 10° W 04:57:22 77° S 05:14:38 10° ESE visible
17 Jan - 06:54:39 10° W 07:13:19 52° SSW 07:26:48 10° SE visible
17 Jan - 09:15:22 10° W 09:25:51 20° SW 09:33:58 10° S daylight
17 Jan - 22:58:23 10° SSW 23:09:11 34° SE 23:24:29 10° E visible
18 Jan - 01:08:16 10° WSW 01:23:11 66° SSE 01:42:58 10° E visible
18 Jan - 03:21:44 10° W 03:40:09 79° S 03:59:15 10° E visible
18 Jan - 05:37:33 10° W 05:57:15 66° SSW 06:13:06 10° SE visible
18 Jan - 07:55:46 10° W 08:11:35 34° SW 08:23:11 10° SSE daylight
18 Jan - 21:47:43 10° SSE 21:55:07 19° SE 22:04:49 10° E night (unlit)
18 Jan - 23:54:45 10° SW 00:07:19 52° SSE 00:25:39 10° E visible
19 Jan - 02:06:37 10° WSW 02:22:59 77° S 02:43:03 10° E visible
19 Jan - 04:21:12 10° W 04:40:25 75° SSW 04:58:25 10° ESE visible
19 Jan - 06:37:51 10° W 06:56:23 49° SSW 07:10:37 10° SE visible
19 Jan - 08:59:12 10° W 09:09:04 18° SW 09:17:05 10° SSW daylight
19 Jan - 22:42:15 10° SSW 22:52:26 36° SE 23:07:37 10° E night (unlit)
20 Jan - 00:52:18 10° WSW 01:06:21 69° SSE 01:26:09 10° E visible
20 Jan - 03:05:33 10° W 03:23:13 79° S 03:42:48 10° E visible
20 Jan - 05:20:57 10° W 05:40:15 63° SSW 05:56:52 10° SE visible
20 Jan - 07:39:06 10° W 07:54:39 31° SW 08:06:43 10° SSE daylight
20 Jan - 21:31:16 10° S 21:38:30 21° SE 21:48:25 10° E night (unlit)
20 Jan - 23:38:50 10° SW 23:50:35 55° SSE 00:08:41 10° E visible
21 Jan - 01:50:38 10° WSW 02:06:09 78° S 02:26:21 10° E visible
21 Jan - 04:04:50 10° W 04:23:25 73° SSW 04:42:03 10° ESE visible
21 Jan - 06:21:11 10° W 06:39:21 46° SW 06:54:15 10° SSE visible
21 Jan - 08:43:23 10° W 08:52:12 16° SW 08:59:46 10° SSW daylight
21 Jan - 22:26:17 10° SSW 22:35:49 39° SE 22:50:42 10° E night (unlit)
22 Jan - 00:36:28 10° WSW 00:49:38 71° SSE 01:09:15 10° E visible
22 Jan - 02:49:28 10° W 03:06:18 78° S 03:26:14 10° ESE visible
22 Jan - 05:04:27 10° W 05:23:11 59° SSW 05:40:27 10° SE visible
22 Jan - 07:22:37 10° W 07:37:37 28° SW 07:50:00 10° S daylight
22 Jan - 21:15:03 10° S 21:22:00 23° SE 21:31:53 10° E night (unlit)
22 Jan - 23:23:03 10° SW 23:33:59 58° SSE 23:51:39 10° E visible
23 Jan - 01:34:47 10° W 01:49:22 78° S 02:09:35 10° E visible
23 Jan - 03:48:36 10° W 04:06:25 70° SSW 04:25:32 10° ESE visible
23 Jan - 06:04:39 10° W 06:22:15 42° SW 06:37:39 10° SSE visible
23 Jan - 08:28:11 10° WSW 08:35:19 13° SW 08:41:45 10° SSW daylight
23 Jan - 22:10:28 10° SSW 22:19:19 41° SE 22:33:43 10° E night (unlit)
24 Jan - 00:20:45 10° WSW 00:33:01 73° SSE 00:52:15 10° E visible
24 Jan - 02:33:29 10° W 02:49:26 77° S 03:09:32 10° ESE visible
24 Jan - 04:48:05 10° W 05:06:06 55° SSW 05:23:51 10° SE visible
24 Jan - 07:06:22 10° W 07:20:35 25° SW 07:32:59 10° S daylight
24 Jan - 20:59:02 10° S 21:05:36 24° SE 21:15:17 10° E visible
24 Jan - 23:07:24 10° SW 23:17:31 61° SSE 23:34:35 10° E visible
25 Jan - 01:19:00 10° W 01:32:41 78° S 01:52:41 10° E visible
25 Jan - 03:32:28 10° W 03:49:25 67° SSW 04:08:50 10° ESE visible
25 Jan - 05:48:18 10° W 06:05:08 38° SW 06:20:50 10° SSE visible
25 Jan - 08:14:23 10° WSW 08:18:24 11° SW 08:22:16 10° SW daylight
25 Jan - 21:54:47 10° SW 22:02:59 44° SE 22:16:45 10° E night (unlit)
26 Jan - 00:05:08 10° WSW 00:16:32 74° S 00:35:13 10° E visible
26 Jan - 02:17:36 10° W 02:32:37 74° S 02:52:43 10° ESE visible
26 Jan - 04:31:52 10° W 04:49:00 51° SSW 05:07:02 10° SE visible
26 Jan - 06:50:24 10° W 07:03:31 22° SW 07:15:37 10° S visible
26 Jan - 20:43:11 10° S 20:49:20 26° SE 20:58:41 10° E visible
26 Jan - 22:51:51 10° WSW 23:01:12 64° SSE 23:17:30 10° E night (unlit)
